Location: Aufkirchen
(47.9603°N, 11.3653°E)
Time: 11:36:55
(UTC+01:00)

Tiros 1 - Pass Details

Date: 02 December 2020
Orbit: 630 x 663 km, 48.4° (Epoch: 21 January)

Event Time Altitude Azimuth Distance (km) Brightness Sun altitude
Rises 15:46:26 0° 253° (WSW) 2,989 12.1 4.1°
Reaches altitude 10° 15:48:47 10° 252° (WSW) 2,078 11.3 3.8°
Maximum altitude 15:53:35 81° 166° (SSE) 674 7.4 3.2°
Drops below altitude 10° 15:58:23 10° 80° (E) 2,072 9.2 2.6°
Sets 16:00:43 0° 79° (E) 2,981 10.0 2.2°
